Volver al catálogo

STARLINK-30236

ActivoComunicacionesVLEO
NORAD 57300·PAYLOAD·🇺🇸 United States

Lanzado Jul 10, 2023 desde Cape Canaveral Space Force Station

Loading…

Próximos Pases (próximas 24 horas)

TLE

ActualizadoSource: CelesTrak SupGP

Época: Sep 15, 2026, 02:06 UTC

1 57300C 23096L   26258.08798611  .00506720  00000+0  51305-2 0  2581
2 57300  42.9998 226.6166 0001436 274.2472  65.3617 15.64097644    14

Sigue STARLINK-30236 en tiempo real con AllMySat

Download on the App Store